START_TIME,STEP,MOV.,M34,t_acc.,L5,t_acc.,L18,t_acc.,L14,t_acc.
1979-03-09 18:00:21.570 ,2,1,0.,12.0,0.,12.0,0.,12.0,0.,12.0
1979-03-09 18:00:33.570 ,2,1,0.,12.0,0.,12.0,0.,12.0,0.,12.0
1979-03-09 18:00:45.570 ,3,1,0.,12.0,0.,12.0,0.,12.0,0.,12.0
1979-03-09 18:00:57.570 ,3,1,0.,12.0,0.,12.0,0.,12.0,0.,12.0
1979-03-09 18:01:09.570 ,4,1,0.,12.0,0.,12.0,0.,12.0,0.,12.0
1979-03-09 18:01:21.570 ,4,1,0.,12.0,0.,12.0,0.,12.0,0.,12.0
1979-03-09 18:01:33.570 ,5,1,0.,12.0,0.,12.0,0.,12.0,0.,12.0
1979-03-09 18:01:45.570 ,5,1,0.,12.0,0.,12.0,0.,12.0,0.,12.0
1979-03-09 18:01:57.570 ,6,1,0.,12.0,0.,12.0,0.,12.0,0.,12.0
1979-03-09 18:02:09.570 ,6,1,0.,12.0,0.,12.0,0.,12.0,0.,12.0
1979-03-09 18:02:21.570 ,7,1,0.,12.0,0.,12.0,0.,12.0,0.,12.0
1979-03-09 18:02:33.570 ,7,1,0.,12.0,0.,12.0,0.,12.0,0.,12.0
1979-03-09 18:02:45.570 ,7,1,0.,12.0,0.,12.0,0.,12.0,0.,12.0
1979-03-09 18:02:57.570 ,7,1,0.,12.0,0.,12.0,0.,12.0,0.,12.0
1979-03-09 18:03:09.570 ,6,1,0.,12.0,0.,12.0,0.,12.0,0.,12.0
1979-03-09 18:03:21.570 ,6,1,0.,12.0,0.,12.0,0.,12.0,0.,12.0
1979-03-09 18:03:33.570 ,5,1,0.,12.0,0.,12.0,0.,12.0,0.,12.0
1979-03-09 18:03:45.570 ,5,1,0.,12.0,0.,12.0,0.,12.0,0.,12.0
1979-03-09 18:03:57.570 ,4,1,0.,12.0,0.,12.0,0.,12.0,0.,12.0
1979-03-09 18:04:09.570 ,4,1,0.,12.0,0.,12.0,0.,12.0,0.,12.0
1979-03-09 18:04:21.570 ,3,1,0.,12.0,0.,12.0,0.,12.0,0.,12.0
1979-03-09 18:04:33.570 ,3,1,0.,12.0,0.,12.0,0.,12.0,0.,12.0
1979-03-09 18:04:45.570 ,2,1,0.,12.0,0.,12.0,0.,12.0,0.,12.0
1979-03-09 18:04:57.570 ,2,1,0.,12.0,0.,12.0,0.,12.0,0.,12.0
1979-03-09 18:05:09.570 ,1,1,0.,12.0,0.,12.0,0.,12.0,0.,12.0
1979-03-09 18:05:21.570 ,1,1,0.,12.0,0.,12.0,0.,12.0,0.,12.0
1979-03-09 18:05:33.570 ,0,1,0.,12.0,0.,12.0,0.,12.0,0.,12.0
1979-03-09 18:05:45.570 ,0,1,0.,12.0,0.,12.0,0.,12.0,0.,12.0
1979-03-09 18:05:57.570 ,0,1,0.,12.0,0.,12.0,0.,12.0,0.,12.0
1979-03-09 18:06:09.570 ,0,1,0.,12.0,0.,12.0,0.,12.0,0.,12.0
1979-03-09 18:06:21.570 ,1,1,0.,12.0,0.,12.0,0.,12.0,0.,12.0
1979-03-09 18:06:33.570 ,1,1,0.,12.0,0.,12.0,0.,12.0,0.,12.0
1979-03-09 18:06:45.570 ,2,1,0.,12.0,0.,12.0,0.,12.0,0.,12.0
1979-03-09 18:06:57.570 ,2,1,0.,12.0,0.,12.0,0.,12.0,0.,12.0
1979-03-09 18:07:09.560 ,3,1,1.,12.0,0.,12.0,0.,12.0,0.,12.0
1979-03-09 18:07:21.560 ,3,1,0.,12.0,0.,12.0,0.,12.0,0.,12.0
1979-03-09 18:07:33.560 ,4,1,0.,12.0,0.,12.0,0.,12.0,0.,12.0
1979-03-09 18:07:45.560 ,4,1,0.,12.0,0.,12.0,0.,12.0,0.,12.0
1979-03-09 18:07:57.560 ,5,1,0.,12.0,0.,12.0,0.,12.0,0.,12.0
1979-03-09 18:08:09.560 ,5,1,0.,12.0,0.,12.0,0.,12.0,0.,12.0
1979-03-09 18:08:21.560 ,6,1,0.,12.0,0.,12.0,0.,12.0,0.,12.0
1979-03-09 18:08:33.560 ,6,1,0.,12.0,0.,12.0,0.,12.0,0.,12.0
1979-03-09 18:08:45.560 ,7,1,0.,12.0,0.,12.0,0.,12.0,0.,12.0
1979-03-09 18:08:57.560 ,7,1,0.,12.0,0.,12.0,0.,12.0,0.,12.0
1979-03-09 18:09:09.560 ,7,1,0.,12.0,0.,12.0,0.,12.0,0.,12.0
1979-03-09 18:09:21.560 ,7,1,0.,12.0,0.,12.0,0.,12.0,0.,12.0
1979-03-09 18:09:33.560 ,6,1,0.,12.0,0.,12.0,0.,12.0,0.,12.0
1979-03-09 18:09:45.560 ,6,1,0.,12.0,0.,12.0,0.,12.0,0.,12.0
1979-03-09 18:09:57.560 ,5,1,0.,12.0,0.,12.0,0.,12.0,0.,12.0
1979-03-09 18:10:09.560 ,5,1,0.,12.0,0.,12.0,0.,12.0,0.,12.0
1979-03-09 18:10:21.560 ,4,1,0.,12.0,0.,12.0,0.,12.0,0.,12.0
1979-03-09 18:10:33.560 ,4,1,0.,12.0,0.,12.0,0.,12.0,0.,12.0
1979-03-09 18:10:45.560 ,3,1,0.,12.0,0.,12.0,0.,12.0,0.,12.0
1979-03-09 18:10:57.560 ,3,1,0.,12.0,0.,12.0,0.,12.0,0.,12.0
1979-03-09 18:11:09.560 ,2,1,0.,12.0,0.,12.0,0.,12.0,0.,12.0
1979-03-09 18:11:21.560 ,2,1,0.,12.0,0.,12.0,0.,12.0,0.,12.0
1979-03-09 18:11:33.560 ,1,1,0.,12.0,0.,12.0,0.,12.0,0.,12.0
1979-03-09 18:11:45.560 ,1,1,0.,12.0,0.,12.0,0.,12.0,0.,12.0
1979-03-09 18:11:57.560 ,0,1,0.,12.0,0.,12.0,0.,12.0,0.,12.0
1979-03-09 18:12:09.560 ,0,1,0.,12.0,0.,12.0,0.,12.0,0.,12.0
1979-03-09 18:12:21.560 ,0,1,0.,12.0,0.,12.0,0.,12.0,0.,12.0
1979-03-09 18:12:33.560 ,0,1,0.,12.0,0.,12.0,0.,12.0,0.,12.0
1979-03-09 18:12:45.560 ,1,1,0.,12.0,0.,12.0,0.,12.0,0.,12.0
1979-03-09 18:12:57.560 ,1,1,0.,12.0,0.,12.0,0.,12.0,0.,12.0
1979-03-09 18:13:09.560 ,2,1,0.,12.0,0.,12.0,0.,12.0,0.,12.0
1979-03-09 18:13:21.560 ,2,1,0.,12.0,0.,12.0,0.,12.0,0.,12.0
1979-03-09 18:13:33.560 ,3,1,1.,12.0,0.,12.0,0.,12.0,0.,12.0
1979-03-09 18:13:45.560 ,3,1,0.,12.0,0.,12.0,0.,12.0,0.,12.0
1979-03-09 18:13:57.560 ,4,1,0.,12.0,0.,12.0,0.,12.0,0.,12.0
1979-03-09 18:14:09.560 ,4,1,0.,12.0,0.,12.0,0.,12.0,0.,12.0
1979-03-09 18:14:21.560 ,5,1,0.,12.0,0.,12.0,0.,12.0,0.,12.0
1979-03-09 18:14:33.560 ,5,1,0.,12.0,0.,12.0,0.,12.0,0.,12.0
1979-03-09 18:14:45.560 ,6,1,0.,12.0,0.,12.0,0.,12.0,0.,12.0
1979-03-09 18:14:57.560 ,6,1,0.,12.0,0.,12.0,0.,12.0,0.,12.0
1979-03-09 18:15:09.550 ,7,1,0.,12.0,0.,12.0,0.,12.0,0.,12.0
1979-03-09 18:15:21.550 ,7,1,0.,12.0,0.,12.0,0.,12.0,0.,12.0
1979-03-09 18:15:33.550 ,7,1,0.,12.0,0.,12.0,0.,12.0,0.,12.0
1979-03-09 18:15:45.550 ,7,1,0.,12.0,0.,12.0,0.,12.0,0.,12.0
1979-03-09 18:15:57.550 ,6,1,0.,12.0,0.,12.0,0.,12.0,0.,12.0
1979-03-09 18:16:09.550 ,6,1,0.,12.0,0.,12.0,0.,12.0,0.,12.0
1979-03-09 18:16:21.550 ,5,1,0.,12.0,0.,12.0,0.,12.0,0.,12.0
1979-03-09 18:16:33.550 ,5,1,0.,12.0,0.,12.0,0.,12.0,0.,12.0
1979-03-09 18:16:45.550 ,4,1,0.,12.0,0.,12.0,0.,12.0,0.,12.0
1979-03-09 18:16:57.550 ,4,1,0.,12.0,0.,12.0,0.,12.0,0.,12.0
1979-03-09 18:17:09.550 ,3,1,0.,12.0,0.,12.0,0.,12.0,0.,12.0
1979-03-09 18:17:21.550 ,3,1,0.,12.0,0.,12.0,0.,12.0,0.,12.0
1979-03-09 18:17:33.550 ,2,1,0.,12.0,0.,12.0,0.,12.0,0.,12.0
1979-03-09 18:17:45.550 ,2,1,0.,12.0,0.,12.0,0.,12.0,0.,12.0
1979-03-09 18:17:57.550 ,1,1,0.,12.0,0.,12.0,0.,12.0,0.,12.0
1979-03-09 18:18:09.550 ,1,1,0.,12.0,0.,12.0,0.,12.0,0.,12.0
1979-03-09 18:18:21.550 ,0,1,0.,12.0,0.,12.0,0.,12.0,0.,12.0
1979-03-09 18:18:33.550 ,0,1,0.,12.0,0.,12.0,0.,12.0,0.,12.0
1979-03-09 18:18:45.550 ,0,1,0.,12.0,0.,12.0,0.,12.0,0.,12.0
1979-03-09 18:18:57.550 ,0,1,0.,12.0,0.,12.0,0.,12.0,0.,12.0
1979-03-09 18:19:09.550 ,1,1,0.,12.0,0.,12.0,0.,12.0,0.,12.0
1979-03-09 18:19:21.550 ,1,1,0.,12.0,0.,12.0,0.,12.0,0.,12.0
1979-03-09 18:19:33.550 ,2,1,0.,12.0,0.,12.0,0.,12.0,0.,12.0
1979-03-09 18:19:45.550 ,2,1,0.,12.0,0.,12.0,0.,12.0,0.,12.0
1979-03-09 18:19:57.550 ,3,1,0.,12.0,0.,12.0,0.,12.0,0.,12.0
1979-03-09 18:20:09.550 ,3,1,0.,12.0,0.,12.0,0.,12.0,0.,12.0
1979-03-09 18:20:21.550 ,4,1,0.,12.0,0.,12.0,0.,12.0,0.,12.0
1979-03-09 18:20:33.550 ,4,1,0.,12.0,0.,12.0,0.,12.0,0.,12.0
1979-03-09 18:20:45.550 ,5,1,0.,12.0,0.,12.0,0.,12.0,0.,12.0
1979-03-09 18:20:57.550 ,5,1,0.,12.0,0.,12.0,0.,12.0,0.,12.0
1979-03-09 18:21:09.550 ,6,1,0.,12.0,0.,12.0,0.,12.0,0.,12.0
1979-03-09 18:21:21.550 ,6,1,0.,12.0,0.,12.0,0.,12.0,0.,12.0
1979-03-09 18:21:33.550 ,7,1,0.,12.0,0.,12.0,0.,12.0,0.,12.0
1979-03-09 18:21:45.550 ,7,1,0.,12.0,0.,12.0,0.,12.0,0.,12.0
1979-03-09 18:21:57.550 ,7,1,0.,12.0,0.,12.0,0.,12.0,0.,12.0
1979-03-09 18:22:09.550 ,7,1,0.,12.0,0.,12.0,0.,12.0,0.,12.0
1979-03-09 18:22:21.550 ,6,1,0.,12.0,0.,12.0,0.,12.0,0.,12.0
1979-03-09 18:22:33.550 ,6,1,0.,12.0,0.,12.0,0.,12.0,0.,12.0
1979-03-09 18:22:45.550 ,5,1,0.,12.0,0.,12.0,0.,12.0,0.,12.0
1979-03-09 18:22:57.550 ,5,1,0.,12.0,0.,12.0,0.,12.0,0.,12.0
1979-03-09 18:23:09.550 ,4,1,0.,12.0,0.,12.0,0.,12.0,0.,12.0
1979-03-09 18:23:21.550 ,4,1,0.,12.0,0.,12.0,0.,12.0,0.,12.0
1979-03-09 18:23:33.550 ,3,1,0.,12.0,0.,12.0,0.,12.0,0.,12.0
1979-03-09 18:23:45.550 ,3,1,0.,12.0,0.,12.0,0.,12.0,0.,12.0
1979-03-09 18:23:57.540 ,2,1,0.,12.0,0.,12.0,0.,12.0,0.,12.0
1979-03-09 18:24:09.540 ,2,1,0.,12.0,0.,12.0,0.,12.0,0.,12.0
1979-03-09 18:24:21.540 ,1,1,0.,12.0,0.,12.0,0.,12.0,0.,12.0
1979-03-09 18:24:33.540 ,1,1,0.,12.0,0.,12.0,0.,12.0,0.,12.0
1979-03-09 18:24:45.540 ,0,1,0.,12.0,0.,12.0,0.,12.0,0.,12.0
1979-03-09 18:24:57.540 ,0,1,0.,12.0,0.,12.0,0.,12.0,0.,12.0
1979-03-09 18:25:09.540 ,0,1,0.,12.0,0.,12.0,0.,12.0,0.,12.0
1979-03-09 18:25:21.540 ,0,1,0.,12.0,0.,12.0,0.,12.0,0.,12.0
1979-03-09 18:25:33.540 ,1,1,0.,12.0,0.,12.0,0.,12.0,0.,12.0
1979-03-09 18:25:45.540 ,1,1,0.,12.0,0.,12.0,0.,12.0,0.,12.0
1979-03-09 18:25:57.540 ,2,1,0.,12.0,0.,12.0,0.,12.0,0.,12.0
1979-03-09 18:26:09.540 ,2,1,0.,12.0,0.,12.0,0.,12.0,0.,12.0
1979-03-09 18:26:21.540 ,3,1,0.,12.0,0.,12.0,0.,12.0,0.,12.0
1979-03-09 18:26:33.540 ,3,1,0.,12.0,0.,12.0,0.,12.0,0.,12.0
1979-03-09 18:26:45.540 ,4,1,0.,12.0,0.,12.0,0.,12.0,0.,12.0
1979-03-09 18:26:57.540 ,4,1,0.,12.0,0.,12.0,0.,12.0,0.,12.0
1979-03-09 18:27:09.540 ,5,1,0.,12.0,0.,12.0,0.,12.0,0.,12.0
1979-03-09 18:27:21.540 ,5,1,0.,12.0,0.,12.0,0.,12.0,0.,12.0
1979-03-09 18:27:33.540 ,6,1,0.,12.0,0.,12.0,0.,12.0,0.,12.0
1979-03-09 18:27:45.540 ,6,1,0.,12.0,0.,12.0,0.,12.0,0.,12.0
1979-03-09 18:27:57.540 ,7,1,0.,12.0,0.,12.0,0.,12.0,0.,12.0
1979-03-09 18:28:09.540 ,7,1,0.,12.0,0.,12.0,0.,12.0,0.,12.0
1979-03-09 18:28:21.540 ,7,1,0.,12.0,0.,12.0,0.,12.0,0.,12.0
1979-03-09 18:28:33.540 ,7,1,0.,12.0,0.,12.0,0.,12.0,0.,12.0
1979-03-09 18:28:45.540 ,6,1,0.,12.0,0.,12.0,0.,12.0,0.,12.0
1979-03-09 18:28:57.540 ,6,1,0.,12.0,0.,12.0,0.,12.0,0.,12.0
1979-03-09 18:29:09.540 ,5,1,0.,12.0,0.,12.0,0.,12.0,0.,12.0
1979-03-09 18:29:21.540 ,5,1,0.,12.0,0.,12.0,0.,12.0,0.,12.0
1979-03-09 18:29:33.540 ,4,1,0.,12.0,0.,12.0,0.,12.0,0.,12.0
1979-03-09 18:29:45.540 ,4,1,0.,12.0,0.,12.0,0.,12.0,0.,12.0
1979-03-09 18:29:57.540 ,3,1,0.,12.0,0.,12.0,0.,12.0,0.,12.0
1979-03-09 18:30:09.540 ,3,1,0.,12.0,0.,12.0,0.,12.0,0.,12.0
1979-03-09 18:30:21.540 ,2,1,0.,12.0,0.,12.0,0.,12.0,0.,12.0
1979-03-09 18:30:33.540 ,2,1,0.,12.0,0.,12.0,0.,12.0,0.,12.0
1979-03-09 18:30:45.540 ,1,1,0.,12.0,0.,12.0,0.,12.0,0.,12.0
1979-03-09 18:30:57.540 ,1,1,0.,12.0,0.,12.0,0.,12.0,0.,12.0
1979-03-09 18:31:09.540 ,0,1,0.,12.0,0.,12.0,0.,12.0,0.,12.0
1979-03-09 18:31:21.540 ,0,1,0.,12.0,0.,12.0,0.,12.0,0.,12.0
1979-03-09 18:31:33.540 ,0,1,0.,12.0,0.,12.0,0.,12.0,0.,12.0
1979-03-09 18:31:45.540 ,0,1,0.,12.0,0.,12.0,0.,12.0,0.,12.0
1979-03-09 18:31:57.540 ,1,1,0.,12.0,0.,12.0,0.,12.0,0.,12.0
1979-03-09 18:32:09.540 ,1,1,0.,12.0,0.,12.0,0.,12.0,0.,12.0
1979-03-09 18:32:21.540 ,2,1,0.,12.0,0.,12.0,0.,12.0,0.,12.0
1979-03-09 18:32:33.540 ,2,1,0.,12.0,0.,12.0,0.,12.0,0.,12.0
1979-03-09 18:32:45.540 ,3,1,0.,12.0,0.,12.0,0.,12.0,0.,12.0
1979-03-09 18:32:57.540 ,3,1,0.,12.0,0.,12.0,0.,12.0,0.,12.0
1979-03-09 18:33:09.540 ,4,1,0.,12.0,0.,12.0,0.,12.0,0.,12.0
1979-03-09 18:33:21.540 ,4,1,0.,12.0,0.,12.0,0.,12.0,0.,12.0
1979-03-09 18:33:33.530 ,5,1,0.,12.0,0.,12.0,0.,12.0,0.,12.0
1979-03-09 18:33:45.530 ,5,1,0.,12.0,0.,12.0,0.,12.0,0.,12.0
1979-03-09 18:33:57.530 ,6,1,0.,12.0,0.,12.0,0.,12.0,0.,12.0
1979-03-09 18:34:09.530 ,6,1,0.,12.0,0.,12.0,0.,12.0,0.,12.0
1979-03-09 18:34:21.530 ,7,1,0.,12.0,0.,12.0,0.,12.0,0.,12.0
1979-03-09 18:34:33.530 ,7,1,0.,12.0,0.,12.0,0.,12.0,0.,12.0
1979-03-09 18:34:45.530 ,7,1,0.,12.0,0.,12.0,0.,12.0,0.,12.0
1979-03-09 18:34:57.530 ,7,1,0.,12.0,0.,12.0,0.,12.0,0.,12.0
1979-03-09 18:35:09.530 ,6,1,0.,12.0,0.,12.0,0.,12.0,0.,12.0
1979-03-09 18:35:21.530 ,6,1,0.,12.0,0.,12.0,0.,12.0,0.,12.0
1979-03-09 18:35:33.530 ,5,1,0.,12.0,0.,12.0,0.,12.0,0.,12.0
1979-03-09 18:35:45.530 ,5,1,0.,12.0,0.,12.0,0.,12.0,0.,12.0
1979-03-09 18:35:57.530 ,4,1,0.,12.0,0.,12.0,0.,12.0,0.,12.0
1979-03-09 18:36:09.530 ,4,1,0.,12.0,0.,12.0,0.,12.0,0.,12.0
1979-03-09 18:36:21.530 ,3,1,0.,12.0,0.,12.0,0.,12.0,0.,12.0
1979-03-09 18:36:33.530 ,3,1,0.,12.0,0.,12.0,0.,12.0,0.,12.0
1979-03-09 18:36:45.530 ,2,1,0.,12.0,0.,12.0,0.,12.0,0.,12.0
1979-03-09 18:36:57.530 ,2,1,0.,12.0,0.,12.0,0.,12.0,0.,12.0
1979-03-09 18:37:09.530 ,1,1,0.,12.0,0.,12.0,0.,12.0,0.,12.0
1979-03-09 18:37:21.530 ,1,1,0.,12.0,0.,12.0,0.,12.0,0.,12.0
1979-03-09 18:37:33.530 ,0,1,0.,12.0,0.,12.0,0.,12.0,0.,12.0
1979-03-09 18:37:45.530 ,0,1,0.,12.0,0.,12.0,0.,12.0,0.,12.0
1979-03-09 18:37:57.530 ,0,1,0.,12.0,0.,12.0,0.,12.0,0.,12.0
1979-03-09 18:38:09.530 ,0,1,0.,12.0,0.,12.0,0.,12.0,0.,12.0
1979-03-09 18:38:21.530 ,1,1,0.,12.0,0.,12.0,0.,12.0,0.,12.0
1979-03-09 18:38:33.530 ,1,1,0.,12.0,0.,12.0,0.,12.0,0.,12.0
1979-03-09 18:38:45.530 ,2,1,0.,12.0,0.,12.0,0.,12.0,0.,12.0
1979-03-09 18:38:57.530 ,2,1,0.,12.0,0.,12.0,0.,12.0,0.,12.0
1979-03-09 18:39:09.530 ,3,1,0.,12.0,0.,12.0,0.,12.0,0.,12.0
1979-03-09 18:39:21.530 ,3,1,0.,12.0,0.,12.0,0.,12.0,0.,12.0
1979-03-09 18:39:33.530 ,4,1,0.,12.0,0.,12.0,0.,12.0,0.,12.0
1979-03-09 18:39:45.530 ,4,1,0.,12.0,0.,12.0,0.,12.0,0.,12.0
1979-03-09 18:39:57.530 ,5,1,0.,12.0,0.,12.0,0.,12.0,0.,12.0
1979-03-09 18:40:09.530 ,5,1,0.,12.0,0.,12.0,0.,12.0,0.,12.0
1979-03-09 18:40:21.530 ,6,1,0.,12.0,0.,12.0,0.,12.0,0.,12.0
1979-03-09 18:40:33.530 ,6,1,0.,12.0,0.,12.0,0.,12.0,0.,12.0
1979-03-09 18:40:45.530 ,7,1,0.,12.0,0.,12.0,0.,12.0,0.,12.0
1979-03-09 18:40:57.530 ,7,1,0.,12.0,0.,12.0,0.,12.0,0.,12.0
1979-03-09 18:41:09.530 ,7,1,0.,12.0,0.,12.0,0.,12.0,0.,12.0
1979-03-09 18:41:21.530 ,7,1,0.,12.0,0.,12.0,0.,12.0,0.,12.0
1979-03-09 18:41:33.530 ,6,1,0.,12.0,0.,12.0,0.,12.0,0.,12.0
1979-03-09 18:41:45.530 ,6,1,0.,12.0,0.,12.0,0.,12.0,0.,12.0
1979-03-09 18:41:57.530 ,5,1,0.,12.0,0.,12.0,0.,12.0,0.,12.0
1979-03-09 18:42:09.530 ,5,1,0.,12.0,0.,12.0,0.,12.0,0.,12.0
1979-03-09 18:42:21.520 ,4,1,0.,12.0,0.,12.0,0.,12.0,0.,12.0
1979-03-09 18:42:33.520 ,4,1,0.,12.0,0.,12.0,0.,12.0,0.,12.0
1979-03-09 18:42:45.520 ,3,1,0.,12.0,0.,12.0,0.,12.0,0.,12.0
1979-03-09 18:42:57.520 ,3,1,0.,12.0,0.,12.0,0.,12.0,0.,12.0
1979-03-09 18:43:09.520 ,2,1,0.,12.0,0.,12.0,0.,12.0,0.,12.0
1979-03-09 18:43:21.520 ,2,1,0.,12.0,0.,12.0,0.,12.0,0.,12.0
1979-03-09 18:43:33.520 ,1,1,0.,12.0,0.,12.0,0.,12.0,0.,12.0
1979-03-09 18:43:45.520 ,1,1,0.,12.0,0.,12.0,0.,12.0,0.,12.0
1979-03-09 18:43:57.520 ,0,1,0.,12.0,0.,12.0,0.,12.0,0.,12.0
1979-03-09 18:44:09.520 ,0,1,0.,12.0,0.,12.0,0.,12.0,0.,12.0
1979-03-09 18:44:21.520 ,0,1,0.,12.0,0.,12.0,0.,12.0,0.,12.0
1979-03-09 18:44:33.520 ,0,1,0.,12.0,0.,12.0,0.,12.0,0.,12.0
1979-03-09 18:44:45.520 ,1,1,0.,12.0,0.,12.0,0.,12.0,0.,12.0
1979-03-09 18:44:57.520 ,1,1,0.,12.0,0.,12.0,0.,12.0,0.,12.0
1979-03-09 18:45:09.520 ,2,1,0.,12.0,0.,12.0,0.,12.0,0.,12.0
1979-03-09 18:45:21.520 ,2,1,0.,12.0,0.,12.0,0.,12.0,0.,12.0
1979-03-09 18:45:33.520 ,3,1,0.,12.0,0.,12.0,0.,12.0,0.,12.0
1979-03-09 18:45:45.520 ,3,1,0.,12.0,0.,12.0,0.,12.0,0.,12.0
1979-03-09 18:45:57.520 ,4,1,0.,12.0,0.,12.0,0.,12.0,0.,12.0
1979-03-09 18:46:09.520 ,4,1,0.,12.0,0.,12.0,0.,12.0,0.,12.0
1979-03-09 18:46:21.520 ,5,1,0.,12.0,0.,12.0,0.,12.0,0.,12.0
1979-03-09 18:46:33.520 ,5,1,0.,12.0,0.,12.0,0.,12.0,0.,12.0
1979-03-09 18:46:45.520 ,6,1,0.,12.0,0.,12.0,0.,12.0,0.,12.0
1979-03-09 18:46:57.520 ,6,1,0.,12.0,0.,12.0,0.,12.0,0.,12.0
1979-03-09 18:47:09.520 ,7,1,0.,12.0,0.,12.0,0.,12.0,0.,12.0
1979-03-09 18:47:21.520 ,7,1,0.,12.0,0.,12.0,0.,12.0,0.,12.0
1979-03-09 18:47:33.520 ,7,1,0.,12.0,0.,12.0,0.,12.0,0.,12.0
1979-03-09 18:47:45.520 ,7,1,0.,12.0,0.,12.0,0.,12.0,0.,12.0
1979-03-09 18:47:57.520 ,6,1,0.,12.0,0.,12.0,0.,12.0,0.,12.0
1979-03-09 18:48:09.520 ,6,1,0.,12.0,0.,12.0,0.,12.0,0.,12.0
1979-03-09 18:48:21.520 ,5,1,0.,12.0,0.,12.0,0.,12.0,0.,12.0
1979-03-09 18:48:33.520 ,5,1,0.,12.0,0.,12.0,0.,12.0,0.,12.0
1979-03-09 18:48:45.520 ,4,1,0.,12.0,0.,12.0,0.,12.0,0.,12.0
1979-03-09 18:48:57.520 ,4,1,0.,12.0,0.,12.0,0.,12.0,0.,12.0
1979-03-09 18:49:09.520 ,3,1,0.,12.0,0.,12.0,0.,12.0,0.,12.0
1979-03-09 18:49:21.520 ,3,1,0.,12.0,0.,12.0,0.,12.0,0.,12.0
1979-03-09 18:49:33.520 ,2,1,0.,12.0,0.,12.0,0.,12.0,0.,12.0
1979-03-09 18:49:45.520 ,2,1,0.,12.0,0.,12.0,0.,12.0,0.,12.0
1979-03-09 18:49:57.520 ,1,1,0.,12.0,0.,12.0,0.,12.0,0.,12.0
1979-03-09 18:50:09.520 ,1,1,0.,12.0,0.,12.0,0.,12.0,0.,12.0
1979-03-09 18:50:21.520 ,0,1,0.,12.0,0.,12.0,0.,12.0,0.,12.0
1979-03-09 18:50:33.520 ,0,1,0.,12.0,0.,12.0,0.,12.0,0.,12.0
1979-03-09 18:50:45.520 ,0,1,0.,12.0,0.,12.0,0.,12.0,0.,12.0
1979-03-09 18:50:57.520 ,0,1,0.,12.0,0.,12.0,0.,12.0,0.,12.0
1979-03-09 18:51:09.520 ,1,1,0.,12.0,0.,12.0,0.,12.0,0.,12.0
1979-03-09 18:51:21.520 ,1,1,0.,12.0,0.,12.0,0.,12.0,0.,12.0
1979-03-09 18:51:33.520 ,2,1,0.,12.0,0.,12.0,0.,12.0,0.,12.0
1979-03-09 18:51:45.520 ,2,1,0.,12.0,0.,12.0,0.,12.0,0.,12.0
1979-03-09 18:51:57.510 ,3,1,0.,12.0,0.,12.0,0.,12.0,0.,12.0
1979-03-09 18:52:09.510 ,3,1,0.,12.0,0.,12.0,0.,12.0,0.,12.0
1979-03-09 18:52:21.510 ,4,1,0.,12.0,0.,12.0,0.,12.0,0.,12.0
1979-03-09 18:52:33.510 ,4,1,0.,12.0,0.,12.0,0.,12.0,0.,12.0
1979-03-09 18:52:45.510 ,5,1,0.,12.0,0.,12.0,0.,12.0,0.,12.0
1979-03-09 18:52:57.510 ,5,1,0.,12.0,0.,12.0,0.,12.0,0.,12.0
1979-03-09 18:53:09.510 ,6,1,0.,12.0,0.,12.0,0.,12.0,0.,12.0
1979-03-09 18:53:21.510 ,6,1,0.,12.0,0.,12.0,0.,12.0,0.,12.0
1979-03-09 18:53:33.510 ,7,1,0.,12.0,0.,12.0,0.,12.0,0.,12.0
1979-03-09 18:53:45.510 ,7,1,0.,12.0,0.,12.0,0.,12.0,0.,12.0
1979-03-09 18:53:57.510 ,7,1,0.,12.0,0.,12.0,0.,12.0,0.,12.0
1979-03-09 18:54:09.510 ,7,1,0.,12.0,0.,12.0,0.,12.0,0.,12.0
1979-03-09 18:54:21.510 ,6,1,0.,12.0,0.,12.0,0.,12.0,0.,12.0
1979-03-09 18:54:33.510 ,6,1,0.,12.0,0.,12.0,0.,12.0,0.,12.0
1979-03-09 18:54:45.510 ,5,1,0.,12.0,0.,12.0,0.,12.0,0.,12.0
1979-03-09 18:54:57.510 ,5,1,0.,12.0,0.,12.0,0.,12.0,0.,12.0
1979-03-09 18:55:09.510 ,4,1,0.,12.0,0.,12.0,0.,12.0,0.,12.0
1979-03-09 18:55:21.510 ,4,1,0.,12.0,0.,12.0,0.,12.0,0.,12.0
1979-03-09 18:55:33.510 ,3,1,0.,12.0,0.,12.0,0.,12.0,0.,12.0
1979-03-09 18:55:45.510 ,3,1,0.,12.0,0.,12.0,0.,12.0,0.,12.0
1979-03-09 18:55:57.510 ,2,1,0.,12.0,0.,12.0,0.,12.0,0.,12.0
1979-03-09 18:56:09.510 ,2,1,0.,12.0,0.,12.0,0.,12.0,0.,12.0
1979-03-09 18:56:21.510 ,1,1,0.,12.0,0.,12.0,0.,12.0,0.,12.0
1979-03-09 18:56:33.510 ,1,1,0.,12.0,0.,12.0,0.,12.0,0.,12.0
1979-03-09 18:56:45.510 ,0,1,0.,12.0,0.,12.0,0.,12.0,0.,12.0
1979-03-09 18:56:57.510 ,0,1,0.,12.0,0.,12.0,0.,12.0,0.,12.0
1979-03-09 18:57:09.510 ,0,1,0.,12.0,0.,12.0,0.,12.0,0.,12.0
1979-03-09 18:57:21.510 ,0,1,0.,12.0,0.,12.0,0.,12.0,0.,12.0
1979-03-09 18:57:33.510 ,1,1,0.,12.0,0.,12.0,0.,12.0,0.,12.0
1979-03-09 18:57:45.510 ,1,1,0.,12.0,0.,12.0,0.,12.0,0.,12.0
1979-03-09 18:57:57.510 ,2,1,0.,12.0,0.,12.0,0.,12.0,0.,12.0
1979-03-09 18:58:09.510 ,2,1,0.,12.0,0.,12.0,0.,12.0,0.,12.0
1979-03-09 18:58:21.510 ,3,1,0.,12.0,0.,12.0,0.,12.0,0.,12.0
1979-03-09 18:58:33.510 ,3,1,0.,12.0,0.,12.0,0.,12.0,0.,12.0
1979-03-09 18:58:45.510 ,4,1,0.,12.0,0.,12.0,0.,12.0,0.,12.0
1979-03-09 18:58:57.510 ,4,1,0.,12.0,0.,12.0,0.,12.0,0.,12.0
1979-03-09 18:59:09.510 ,5,1,0.,12.0,0.,12.0,0.,12.0,0.,12.0
1979-03-09 18:59:21.510 ,5,1,0.,12.0,0.,12.0,0.,12.0,0.,12.0
1979-03-09 18:59:33.510 ,6,1,0.,12.0,0.,12.0,0.,12.0,0.,12.0
1979-03-09 18:59:45.510 ,6,1,0.,12.0,0.,12.0,0.,12.0,0.,12.0
1979-03-09 18:59:57.510 ,7,1,0.,12.0,0.,12.0,0.,12.0,0.,12.0
1979-03-09 19:00:09.510 ,7,1,0.,12.0,0.,12.0,0.,12.0,0.,12.0
1979-03-09 19:00:21.510 ,7,1,0.,12.0,0.,12.0,0.,12.0,0.,12.0
1979-03-09 19:00:33.510 ,7,1,0.,12.0,0.,12.0,0.,12.0,0.,12.0
1979-03-09 19:00:45.510 ,6,1,0.,12.0,0.,12.0,0.,12.0,0.,12.0
1979-03-09 19:00:57.510 ,6,1,0.,12.0,0.,12.0,0.,12.0,0.,12.0
1979-03-09 19:01:09.510 ,5,1,0.,12.0,0.,12.0,0.,12.0,0.,12.0
1979-03-09 19:01:21.510 ,5,1,0.,12.0,0.,12.0,0.,12.0,0.,12.0
1979-03-09 19:01:33.500 ,4,1,0.,12.0,0.,12.0,0.,12.0,0.,12.0
1979-03-09 19:01:45.500 ,4,1,0.,12.0,0.,12.0,0.,12.0,0.,12.0
1979-03-09 19:01:57.500 ,3,1,0.,12.0,0.,12.0,0.,12.0,0.,12.0
1979-03-09 19:02:09.500 ,3,1,0.,12.0,0.,12.0,0.,12.0,0.,12.0
1979-03-09 19:02:21.500 ,2,1,0.,12.0,0.,12.0,0.,12.0,0.,12.0
1979-03-09 19:02:33.500 ,2,1,0.,12.0,0.,12.0,0.,12.0,0.,12.0
1979-03-09 19:02:45.500 ,1,1,0.,12.0,0.,12.0,0.,12.0,0.,12.0
1979-03-09 19:02:57.500 ,1,1,0.,12.0,0.,12.0,0.,12.0,0.,12.0
1979-03-09 19:03:09.500 ,0,1,0.,12.0,0.,12.0,0.,12.0,0.,12.0
1979-03-09 19:03:21.500 ,0,1,0.,12.0,0.,12.0,0.,12.0,0.,12.0
1979-03-09 19:03:33.500 ,0,1,0.,12.0,0.,12.0,0.,12.0,0.,12.0
1979-03-09 19:03:45.500 ,0,1,0.,12.0,0.,12.0,0.,12.0,0.,12.0
1979-03-09 19:03:57.500 ,1,1,0.,12.0,0.,12.0,0.,12.0,0.,12.0
1979-03-09 19:04:09.500 ,1,1,0.,12.0,0.,12.0,0.,12.0,0.,12.0
1979-03-09 19:04:21.500 ,2,1,0.,12.0,0.,12.0,0.,12.0,0.,12.0
1979-03-09 19:04:33.500 ,2,1,0.,12.0,0.,12.0,0.,12.0,0.,12.0
1979-03-09 19:04:45.500 ,3,1,0.,12.0,0.,12.0,0.,12.0,0.,12.0
1979-03-09 19:04:57.500 ,3,1,0.,12.0,0.,12.0,0.,12.0,0.,12.0
1979-03-09 19:05:09.500 ,4,1,0.,12.0,0.,12.0,0.,12.0,0.,12.0
1979-03-09 19:05:21.500 ,4,1,0.,12.0,0.,12.0,0.,12.0,0.,12.0
1979-03-09 19:05:33.500 ,5,1,0.,12.0,0.,12.0,0.,12.0,0.,12.0
1979-03-09 19:05:45.500 ,5,1,0.,12.0,0.,12.0,0.,12.0,0.,12.0
1979-03-09 19:05:57.500 ,6,1,0.,12.0,0.,12.0,0.,12.0,0.,12.0
1979-03-09 19:06:09.500 ,6,1,0.,12.0,0.,12.0,0.,12.0,0.,12.0
1979-03-09 19:06:21.500 ,7,1,0.,12.0,0.,12.0,0.,12.0,0.,12.0
1979-03-09 19:06:33.500 ,7,1,0.,12.0,0.,12.0,0.,12.0,0.,12.0
1979-03-09 19:06:45.500 ,7,1,0.,12.0,0.,12.0,0.,12.0,0.,12.0
1979-03-09 19:06:57.500 ,7,1,0.,12.0,0.,12.0,0.,12.0,0.,12.0
1979-03-09 19:07:09.500 ,6,1,0.,12.0,0.,12.0,0.,12.0,0.,12.0
1979-03-09 19:07:21.500 ,6,1,0.,12.0,0.,12.0,0.,12.0,0.,12.0
1979-03-09 19:07:33.500 ,5,1,0.,12.0,0.,12.0,0.,12.0,0.,12.0
1979-03-09 19:07:45.500 ,5,1,0.,12.0,0.,12.0,0.,12.0,0.,12.0
1979-03-09 19:07:57.500 ,4,1,0.,12.0,0.,12.0,0.,12.0,0.,12.0
1979-03-09 19:08:09.500 ,4,1,0.,12.0,0.,12.0,0.,12.0,0.,12.0
1979-03-09 19:08:21.500 ,3,1,0.,12.0,0.,12.0,0.,12.0,0.,12.0
1979-03-09 19:08:33.500 ,3,1,0.,12.0,0.,12.0,0.,12.0,0.,12.0
1979-03-09 19:08:45.500 ,2,1,0.,12.0,0.,12.0,0.,12.0,0.,12.0
1979-03-09 19:08:57.500 ,2,1,0.,12.0,0.,12.0,0.,12.0,0.,12.0
1979-03-09 19:09:09.500 ,1,1,0.,12.0,0.,12.0,0.,12.0,0.,12.0
1979-03-09 19:09:21.500 ,1,1,0.,12.0,0.,12.0,0.,12.0,0.,12.0
1979-03-09 19:09:33.490 ,0,1,0.,12.0,0.,12.0,0.,12.0,0.,12.0
1979-03-09 19:09:45.490 ,0,1,0.,12.0,0.,12.0,0.,12.0,0.,12.0
1979-03-09 19:09:57.490 ,0,1,0.,12.0,0.,12.0,0.,12.0,0.,12.0
1979-03-09 19:10:09.490 ,0,1,0.,12.0,0.,12.0,0.,12.0,0.,12.0
1979-03-09 19:10:45.490 ,2,1,0.,12.0,0.,12.0,0.,12.0,0.,12.0
1979-03-09 19:10:57.490 ,2,1,0.,12.0,0.,12.0,0.,12.0,0.,12.0
1979-03-09 19:11:09.490 ,3,1,0.,12.0,0.,12.0,0.,12.0,0.,12.0
1979-03-09 19:11:21.490 ,3,1,0.,12.0,0.,12.0,0.,12.0,0.,12.0
1979-03-09 19:11:33.490 ,4,1,0.,12.0,0.,12.0,0.,12.0,0.,12.0
1979-03-09 19:11:45.490 ,4,1,0.,12.0,0.,12.0,0.,12.0,0.,12.0
1979-03-09 19:11:57.490 ,5,1,0.,12.0,0.,12.0,0.,12.0,0.,12.0
1979-03-09 19:12:09.490 ,5,1,0.,12.0,0.,12.0,0.,12.0,0.,12.0
1979-03-09 19:12:21.490 ,6,1,0.,12.0,0.,12.0,0.,12.0,0.,12.0
1979-03-09 19:12:33.490 ,6,1,0.,12.0,0.,12.0,0.,12.0,0.,12.0
1979-03-09 19:12:45.490 ,7,1,0.,12.0,0.,12.0,0.,12.0,0.,12.0
1979-03-09 19:12:57.490 ,7,1,0.,12.0,0.,12.0,0.,12.0,0.,12.0
1979-03-09 19:13:09.490 ,7,1,0.,12.0,0.,12.0,0.,12.0,0.,12.0
1979-03-09 19:13:21.490 ,7,1,0.,12.0,0.,12.0,0.,12.0,0.,12.0
1979-03-09 19:13:33.490 ,6,1,0.,12.0,0.,12.0,0.,12.0,0.,12.0
1979-03-09 19:13:45.490 ,6,1,0.,12.0,0.,12.0,0.,12.0,0.,12.0
1979-03-09 19:13:57.490 ,5,1,0.,12.0,0.,12.0,0.,12.0,0.,12.0
1979-03-09 19:14:09.490 ,5,1,0.,12.0,0.,12.0,0.,12.0,0.,12.0
1979-03-09 19:14:21.490 ,4,1,0.,12.0,0.,12.0,0.,12.0,0.,12.0
1979-03-09 19:14:33.490 ,4,1,0.,12.0,0.,12.0,0.,12.0,0.,12.0
1979-03-09 19:14:45.490 ,3,1,0.,12.0,0.,12.0,0.,12.0,0.,12.0
1979-03-09 19:14:57.490 ,3,1,0.,12.0,0.,12.0,0.,12.0,0.,12.0
1979-03-09 19:15:09.490 ,0,0,0.,12.0,0.,12.0,0.,12.0,0.,12.0
1979-03-09 19:15:21.490 ,0,0,,0,,0,,0,,0
1979-03-09 19:15:33.490 ,0,0,0.,12.0,0.,12.0,0.,12.0,0.,12.0
1979-03-09 19:15:45.490 ,0,0,0.,12.0,0.,12.0,0.,12.0,0.,12.0
1979-03-09 19:15:57.490 ,0,1,0.,12.0,0.,12.0,0.,12.0,0.,12.0
1979-03-09 19:16:09.490 ,0,1,0.,12.0,0.,12.0,0.,12.0,0.,12.0
1979-03-09 19:16:21.490 ,0,1,0.,12.0,0.,12.0,0.,12.0,0.,12.0
1979-03-09 19:16:33.490 ,0,1,0.,12.0,0.,12.0,0.,12.0,0.,12.0
1979-03-09 19:16:45.490 ,3,1,0.,12.0,0.,12.0,0.,12.0,0.,12.0
1979-03-09 19:16:57.490 ,3,1,0.,12.0,0.,12.0,0.,12.0,0.,12.0
1979-03-09 19:17:09.490 ,7,1,0.,12.0,0.,12.0,0.,12.0,0.,12.0
1979-03-09 19:17:21.490 ,7,1,0.,12.0,0.,12.0,0.,12.0,0.,12.0
1979-03-09 19:17:33.490 ,4,1,0.,12.0,0.,12.0,0.,12.0,0.,12.0
1979-03-09 19:17:45.490 ,4,1,0.,12.0,0.,12.0,0.,12.0,0.,12.0